owner,sensor,date,latitude,longitude,vertical_datum,wind_speed,wind_to_direction,wind_speed_of_gust,qcFlag 
TABS,ioos:station:wmo:42047:1,2016-03-01T00:00:00Z,27.8966,-93.5973,4.0,2.758731593,159.8574543,3.25,'11111222,11111222,11111222' 
TABS,ioos:station:wmo:42047:1,2016-03-01T00:30:00Z,27.8966,-93.5973,4.0,2.329377599,156.7370794,2.82,'11111222,11111222,11111222' 
TABS,ioos:station:wmo:42047:1,2016-03-01T01:00:00Z,27.8966,-93.5973,4.0,2.710166047,150.1242876,3.29,'11111222,11111222,11111222' 
TABS,ioos:station:wmo:42047:1,2016-03-01T01:30:00Z,27.8966,-93.5973,4.0,2.957431318,144.913044,3.52,'11111222,11111222,11111222' 
TABS,ioos:station:wmo:42047:1,2016-03-01T02:00:00Z,27.8966,-93.5973,4.0,3.479324647,153.3615767,4.15,'11111222,11111222,11111222' 
TABS,ioos:station:wmo:42047:1,2016-03-01T02:30:00Z,27.8966,-93.5973,4.0,3.779219496,152.7571981,4.39,'11111222,11111222,11111222' 
TABS,ioos:station:wmo:42047:1,2016-03-01T03:00:00Z,27.8966,-93.5973,4.0,3.78219513,155.807058,4.43,'11111222,11111222,11111222' 
TABS,ioos:station:wmo:42047:1,2016-03-01T03:30:00Z,27.8966,-93.5973,4.0,4.032096229,159.2280044,4.9,'11111222,11111222,11111222' 
TABS,ioos:station:wmo:42047:1,2016-03-01T04:00:00Z,27.8966,-93.5973,4.0,4.804019151,157.8666428,5.3,'11111222,11111222,11111222' 
TABS,ioos:station:wmo:42047:1,2016-03-01T04:30:00Z,27.8966,-93.5973,4.0,4.838481167,159.4303537,5.43,'11111222,11111222,11111222' 
TABS,ioos:station:wmo:42047:1,2016-03-01T05:00:00Z,27.8966,-93.5973,4.0,5.541552129,157.5076512,6.41,'11111222,11111222,11111222' 
TABS,ioos:station:wmo:42047:1,2016-03-01T05:30:00Z,27.8966,-93.5973,4.0,5.755692834,162.1949019,6.51,'11111222,11111222,11111222' 
TABS,ioos:station:wmo:42047:1,2016-03-01T06:00:00Z,27.8966,-93.5973,4.0,5.178436057,165.3467872,6.38,'11111222,11111222,11111222' 
TABS,ioos:station:wmo:42047:1,2016-03-01T06:30:00Z,27.8966,-93.5973,4.0,4.737615434,171.8701271,5.94,'11111222,11111222,11111222' 
TABS,ioos:station:wmo:42047:1,2016-03-01T07:00:00Z,27.8966,-93.5973,4.0,4.420723923,178.9632984,5.19,'11111222,11111222,11111222' 
TABS,ioos:station:wmo:42047:1,2016-03-01T07:30:00Z,27.8966,-93.5973,4.0,5.523622,182.075232,6.53,'11111222,11111222,11111222' 
TABS,ioos:station:wmo:42047:1,2016-03-01T08:00:00Z,27.8966,-93.5973,4.0,6.220128616,180.3686661,7.29,'11111222,11111222,11111222' 
TABS,ioos:station:wmo:42047:1,2016-03-01T08:30:00Z,27.8966,-93.5973,4.0,6.951618517,178.7638057,8.51,'11111222,11111222,11111222' 
TABS,ioos:station:wmo:42047:1,2016-03-01T09:00:00Z,27.8966,-93.5973,4.0,8.358193585,177.4630212,10.37,'11111222,11111222,11111222' 
TABS,ioos:station:wmo:42047:1,2016-03-01T09:30:00Z,27.8966,-93.5973,4.0,7.603926617,183.4684316,9.07,'11111222,11111222,11111222' 
TABS,ioos:station:wmo:42047:1,2016-03-01T10:00:00Z,27.8966,-93.5973,4.0,7.466860117,182.4564268,8.71,'11111222,11111222,11111222' 
TABS,ioos:station:wmo:42047:1,2016-03-01T10:30:00Z,27.8966,-93.5973,4.0,7.083685481,185.5900663,8.1,'11111222,11111222,11111222' 
TABS,ioos:station:wmo:42047:1,2016-03-01T11:00:00Z,27.8966,-93.5973,4.0,6.621857745,192.2943643,7.7,'11111222,11111222,11111222' 
TABS,ioos:station:wmo:42047:1,2016-03-01T11:30:00Z,27.8966,-93.5973,4.0,5.519284374,197.2860739,6.29,'11111222,11111222,11111222' 
TABS,ioos:station:wmo:42047:1,2016-03-01T12:00:00Z,27.8966,-93.5973,4.0,4.923921202,200.5698267,5.91,'11111222,11111222,11111222' 
TABS,ioos:station:wmo:42047:1,2016-03-01T12:30:00Z,27.8966,-93.5973,4.0,4.866836755,195.4927763,5.71,'11111222,11111222,11111222' 
TABS,ioos:station:wmo:42047:1,2016-03-01T13:00:00Z,27.8966,-93.5973,4.0,4.818485239,204.9164765,5.64,'11111222,11111222,11111222' 
TABS,ioos:station:wmo:42047:1,2016-03-01T13:30:00Z,27.8966,-93.5973,4.0,4.774191031,208.3903101,5.77,'11111222,11111222,11111222' 
TABS,ioos:station:wmo:42047:1,2016-03-01T14:00:00Z,27.8966,-93.5973,4.0,4.00679423,211.9448885,4.42,'11111222,11111222,11111222' 
TABS,ioos:station:wmo:42047:1,2016-03-01T14:30:00Z,27.8966,-93.5973,4.0,3.435476677,211.7933792,3.99,'11111222,11111222,11111222' 
TABS,ioos:station:wmo:42047:1,2016-03-01T15:00:00Z,27.8966,-93.5973,4.0,2.992941697,227.0310147,3.67,'11111222,11111222,11111222' 
TABS,ioos:station:wmo:42047:1,2016-03-01T15:30:00Z,27.8966,-93.5973,4.0,3.09962901,240.2093334,3.7,'11111222,11111222,11111222' 
TABS,ioos:station:wmo:42047:1,2016-03-01T16:00:00Z,27.8966,-93.5973,4.0,2.70675082,219.4533545,3.13,'11111222,11111222,11111222' 
TABS,ioos:station:wmo:42047:1,2016-03-01T16:30:00Z,27.8966,-93.5973,4.0,2.626823176,204.5163143,2.92,'11111222,11111222,11111222' 
TABS,ioos:station:wmo:42047:1,2016-03-01T17:00:00Z,27.8966,-93.5973,4.0,2.561269217,185.3769033,3.11,'11111222,11111222,11111222' 
TABS,ioos:station:wmo:42047:1,2016-03-01T17:30:00Z,27.8966,-93.5973,4.0,2.825738841,183.6524247,3.63,'11111222,11111222,11111222' 
TABS,ioos:station:wmo:42047:1,2016-03-01T18:00:00Z,27.8966,-93.5973,4.0,3.357260788,174.1877417,4.25,'11111222,11111222,11111222' 
TABS,ioos:station:wmo:42047:1,2016-03-01T18:30:00Z,27.8966,-93.5973,4.0,3.790646383,181.0583211,4.49,'11111222,11111222,11111222' 
TABS,ioos:station:wmo:42047:1,2016-03-01T19:00:00Z,27.8966,-93.5973,4.0,3.320993827,197.3439025,3.87,'11111222,11111222,11111222' 
TABS,ioos:station:wmo:42047:1,2016-03-01T19:30:00Z,27.8966,-93.5973,4.0,3.269388322,194.1639335,3.76,'11111222,11111222,11111222' 
TABS,ioos:station:wmo:42047:1,2016-03-01T20:00:00Z,27.8966,-93.5973,4.0,3.86129512,178.5161993,4.59,'11111222,11111222,11111222' 
TABS,ioos:station:wmo:42047:1,2016-03-01T20:30:00Z,27.8966,-93.5973,4.0,3.990012531,180.1438083,4.79,'11111222,11111222,11111222' 
TABS,ioos:station:wmo:42047:1,2016-03-01T21:00:00Z,27.8966,-93.5973,4.0,5.367233924,174.2258981,6.31,'11111222,11111222,11111222' 
TABS,ioos:station:wmo:42047:1,2016-03-01T21:30:00Z,27.8966,-93.5973,4.0,5.047058549,189.3505322,5.62,'11111222,11111222,11111222' 
TABS,ioos:station:wmo:42047:1,2016-03-01T22:00:00Z,27.8966,-93.5973,4.0,4.586349311,194.006122,5.07,'11111222,11111222,11111222' 
TABS,ioos:station:wmo:42047:1,2016-03-01T22:30:00Z,27.8966,-93.5973,4.0,5.057202784,199.4024929,5.76,'11111222,11111222,11111222' 
TABS,ioos:station:wmo:42047:1,2016-03-01T23:00:00Z,27.8966,-93.5973,4.0,4.674569499,197.427313,5.3,'11111222,11111222,11111222' 
TABS,ioos:station:wmo:42047:1,2016-03-01T23:30:00Z,27.8966,-93.5973,4.0,3.630674868,209.1773695,4.36,'11111222,11111222,11111222' 
TABS,ioos:station:wmo:42047:1,2016-03-02T00:00:00Z,27.8966,-93.5973,4.0,3.207023542,210.9638946,4.3,'11111222,11111222,11111222' 
TABS,ioos:station:wmo:42047:1,2016-03-02T00:30:00Z,27.8966,-93.5973,4.0,1.366235704,250.7693726,1.75,'11111222,11111222,11111222' 
TABS,ioos:station:wmo:42047:1,2016-03-02T01:00:00Z,27.8966,-93.5973,4.0,1.133578405,311.4235688,1.34,'11111222,11111222,11111222' 
TABS,ioos:station:wmo:42047:1,2016-03-02T01:30:00Z,27.8966,-93.5973,4.0,1.435687988,341.3124817,1.78,'11111222,11111222,11111222' 
TABS,ioos:station:wmo:42047:1,2016-03-02T02:00:00Z,27.8966,-93.5973,4.0,0.876641318,11.1815176,1.09,'11111222,11111222,11111222' 
TABS,ioos:station:wmo:42047:1,2016-03-02T02:30:00Z,27.8966,-93.5973,4.0,0.80411442,21.13956492,0.98,'11111222,11111222,11111222' 
TABS,ioos:station:wmo:42047:1,2016-03-02T03:00:00Z,27.8966,-93.5973,4.0,0.946678404,58.82830295,1.0,'11111222,11111222,11111222' 
TABS,ioos:station:wmo:42047:1,2016-03-02T03:30:00Z,27.8966,-93.5973,4.0,1.83839604,154.5503243,2.46,'11111222,11111222,11111222' 
TABS,ioos:station:wmo:42047:1,2016-03-02T04:00:00Z,27.8966,-93.5973,4.0,1.83521116,159.5903754,2.63,'11111222,11111222,11111222' 
TABS,ioos:station:wmo:42047:1,2016-03-02T04:30:00Z,27.8966,-93.5973,4.0,1.936104336,167.471432,2.34,'11111222,11111222,11111222' 
TABS,ioos:station:wmo:42047:1,2016-03-02T05:00:00Z,27.8966,-93.5973,4.0,2.681641288,172.7162038,3.14,'11111222,11111222,11111222' 
TABS,ioos:station:wmo:42047:1,2016-03-02T05:30:00Z,27.8966,-93.5973,4.0,2.065453945,184.1648734,2.39,'11111222,11111222,11111222' 
TABS,ioos:station:wmo:42047:1,2016-03-02T06:00:00Z,27.8966,-93.5973,4.0,1.680773631,202.7511336,1.95,'11111222,11111222,11111222' 
TABS,ioos:station:wmo:42047:1,2016-03-02T06:30:00Z,27.8966,-93.5973,4.0,1.838477631,202.3802932,2.36,'11111222,11111222,11111222' 
TABS,ioos:station:wmo:42047:1,2016-03-02T07:00:00Z,27.8966,-93.5973,4.0,1.294024729,216.5158029,1.69,'11111222,11111222,11111222' 
TABS,ioos:station:wmo:42047:1,2016-03-02T07:30:00Z,27.8966,-93.5973,4.0,1.474618595,247.2606354,1.96,'11111222,11111222,11111222' 
TABS,ioos:station:wmo:42047:1,2016-03-02T08:00:00Z,27.8966,-93.5973,4.0,1.387083271,264.2072171,1.69,'11111222,11111222,11111222' 
TABS,ioos:station:wmo:42047:1,2016-03-02T08:30:00Z,27.8966,-93.5973,4.0,1.469965986,255.0184025,2.06,'11111222,11111222,11111222' 
TABS,ioos:station:wmo:42047:1,2016-03-02T09:00:00Z,27.8966,-93.5973,4.0,1.853105502,263.1818014,2.25,'11111222,11111222,11111222' 
TABS,ioos:station:wmo:42047:1,2016-03-02T09:30:00Z,27.8966,-93.5973,4.0,2.427920921,258.5975324,2.81,'11111222,11111222,11111222' 
TABS,ioos:station:wmo:42047:1,2016-03-02T10:00:00Z,27.8966,-93.5973,4.0,1.941957775,237.619398,2.49,'11111222,11111222,11111222' 
TABS,ioos:station:wmo:42047:1,2016-03-02T10:30:00Z,27.8966,-93.5973,4.0,2.435159132,303.9510149,7.49,'11111222,11111222,11111222' 
TABS,ioos:station:wmo:42047:1,2016-03-02T11:00:00Z,27.8966,-93.5973,4.0,10.69057997,66.04802954,11.07,'11111222,11111222,11111222' 
TABS,ioos:station:wmo:42047:1,2016-03-02T11:30:00Z,27.8966,-93.5973,4.0,9.332148734,70.01127388,10.77,'11111222,11111222,11111222' 
TABS,ioos:station:wmo:42047:1,2016-03-02T12:00:00Z,27.8966,-93.5973,4.0,9.967838281,71.09206772,11.72,'11111222,11111222,11111222' 
TABS,ioos:station:wmo:42047:1,2016-03-02T12:30:00Z,27.8966,-93.5973,4.0,10.34649699,69.63802342,11.63,'11111222,11111222,11111222' 
TABS,ioos:station:wmo:42047:1,2016-03-02T13:00:00Z,27.8966,-93.5973,4.0,10.36197375,79.54638679,11.55,'11111222,11111222,11111222' 
TABS,ioos:station:wmo:42047:1,2016-03-02T13:30:00Z,27.8966,-93.5973,4.0,9.404132071,84.44662103,11.5,'11111222,11111222,11111222' 
TABS,ioos:station:wmo:42047:1,2016-03-02T14:00:00Z,27.8966,-93.5973,4.0,10.01121871,81.8452145,11.24,'11111222,11111222,11111222' 
TABS,ioos:station:wmo:42047:1,2016-03-02T14:30:00Z,27.8966,-93.5973,4.0,9.403244121,85.18028732,11.27,'11111222,11111222,11111222' 
TABS,ioos:station:wmo:42047:1,2016-03-02T15:00:00Z,27.8966,-93.5973,4.0,9.316957658,87.78516864,10.94,'11111222,11111222,11111222' 
TABS,ioos:station:wmo:42047:1,2016-03-02T15:30:00Z,27.8966,-93.5973,4.0,9.172180766,88.75014477,10.61,'11111222,11111222,11111222' 
TABS,ioos:station:wmo:42047:1,2016-03-02T16:00:00Z,27.8966,-93.5973,4.0,9.367710499,92.32524947,10.63,'11111222,11111222,11111222' 
TABS,ioos:station:wmo:42047:1,2016-03-02T16:30:00Z,27.8966,-93.5973,4.0,8.713810877,100.7816178,9.91,'11111222,11111222,11111222' 
TABS,ioos:station:wmo:42047:1,2016-03-02T17:00:00Z,27.8966,-93.5973,4.0,8.839117603,104.948505,10.25,'11111222,11111222,11111222' 
TABS,ioos:station:wmo:42047:1,2016-03-02T17:30:00Z,27.8966,-93.5973,4.0,8.639363402,108.5611587,10.34,'11111222,11111222,11111222' 
TABS,ioos:station:wmo:42047:1,2016-03-02T18:00:00Z,27.8966,-93.5973,4.0,8.362511584,105.964602,10.24,'11111222,11111222,11111222' 
TABS,ioos:station:wmo:42047:1,2016-03-02T18:30:00Z,27.8966,-93.5973,4.0,8.375452227,109.6035804,9.94,'11111222,11111222,11111222' 
TABS,ioos:station:wmo:42047:1,2016-03-02T19:00:00Z,27.8966,-93.5973,4.0,8.336264151,116.9649976,9.83,'11111222,11111222,11111222' 
TABS,ioos:station:wmo:42047:1,2016-03-02T19:30:00Z,27.8966,-93.5973,4.0,8.792820935,120.7070754,9.71,'11111222,11111222,11111222' 
TABS,ioos:station:wmo:42047:1,2016-03-02T20:00:00Z,27.8966,-93.5973,4.0,8.033784911,119.5329292,9.57,'11111222,11111222,11111222' 
TABS,ioos:station:wmo:42047:1,2016-03-02T20:30:00Z,27.8966,-93.5973,4.0,8.282058923,121.5217382,9.7,'11111222,11111222,11111222' 
TABS,ioos:station:wmo:42047:1,2016-03-02T21:00:00Z,27.8966,-93.5973,4.0,8.032714361,122.9584264,9.05,'11111222,11111222,11111222' 
TABS,ioos:station:wmo:42047:1,2016-03-02T21:30:00Z,27.8966,-93.5973,4.0,7.559927248,119.6512284,8.95,'11111222,11111222,11111222' 
TABS,ioos:station:wmo:42047:1,2016-03-02T22:00:00Z,27.8966,-93.5973,4.0,7.964483662,121.2355294,8.72,'11111222,11111222,11111222' 
TABS,ioos:station:wmo:42047:1,2016-03-02T22:30:00Z,27.8966,-93.5973,4.0,7.567113056,117.0394766,8.92,'11111222,11111222,11111222' 
TABS,ioos:station:wmo:42047:1,2016-03-02T23:00:00Z,27.8966,-93.5973,4.0,7.347230771,120.5093872,8.34,'11111222,11111222,11111222' 
TABS,ioos:station:wmo:42047:1,2016-03-02T23:30:00Z,27.8966,-93.5973,4.0,7.528001063,126.9006764,8.67,'11111222,11111222,11111222' 
TABS,ioos:station:wmo:42047:1,2016-03-03T00:00:00Z,27.8966,-93.5973,4.0,6.708002683,126.818984,7.69,'11111222,11111222,11111222' 
TABS,ioos:station:wmo:42047:1,2016-03-03T00:30:00Z,27.8966,-93.5973,4.0,6.16637657,134.3432843,7.52,'11111222,11111222,11111222' 
TABS,ioos:station:wmo:42047:1,2016-03-03T01:00:00Z,27.8966,-93.5973,4.0,6.86705905,133.9973018,7.79,'11111222,11111222,11111222' 
TABS,ioos:station:wmo:42047:1,2016-03-03T01:30:00Z,27.8966,-93.5973,4.0,6.711259196,137.7783052,7.84,'11111222,11111222,11111222' 
TABS,ioos:station:wmo:42047:1,2016-03-03T02:00:00Z,27.8966,-93.5973,4.0,6.800183821,143.5516829,8.33,'11111222,11111222,11111222' 
TABS,ioos:station:wmo:42047:1,2016-03-03T02:30:00Z,27.8966,-93.5973,4.0,7.257306663,150.0791351,8.24,'11111222,11111222,11111222' 
TABS,ioos:station:wmo:42047:1,2016-03-03T03:00:00Z,27.8966,-93.5973,4.0,7.868729249,154.8030213,8.75,'11111222,11111222,11111222' 
TABS,ioos:station:wmo:42047:1,2016-03-03T03:30:00Z,27.8966,-93.5973,4.0,7.665304952,159.9341321,8.2,'11111222,11111222,11111222' 
TABS,ioos:station:wmo:42047:1,2016-03-03T04:00:00Z,27.8966,-93.5973,4.0,7.41555797,161.4431394,8.21,'11111222,11111222,11111222' 
TABS,ioos:station:wmo:42047:1,2016-03-03T04:30:00Z,27.8966,-93.5973,4.0,9.347325821,166.0085994,8.69,'11111222,11111222,11111222' 
TABS,ioos:station:wmo:42047:1,2016-03-03T05:00:00Z,27.8966,-93.5973,4.0,7.951075399,171.3198123,9.06,'11111222,11111222,11111222' 
TABS,ioos:station:wmo:42047:1,2016-03-03T05:30:00Z,27.8966,-93.5973,4.0,7.069893917,175.7009653,7.89,'11111222,11111222,11111222' 
TABS,ioos:station:wmo:42047:1,2016-03-03T06:00:00Z,27.8966,-93.5973,4.0,6.369277824,185.4959661,7.51,'11111222,11111222,11111222' 
TABS,ioos:station:wmo:42047:1,2016-03-03T06:30:00Z,27.8966,-93.5973,4.0,6.105775954,186.2056719,7.1,'11111222,11111222,11111222' 
TABS,ioos:station:wmo:42047:1,2016-03-03T07:00:00Z,27.8966,-93.5973,4.0,6.281560316,184.7486914,7.11,'11111222,11111222,11111222' 
TABS,ioos:station:wmo:42047:1,2016-03-03T07:30:00Z,27.8966,-93.5973,4.0,7.257506459,182.6063514,8.5,'11111222,11111222,11111222' 
TABS,ioos:station:wmo:42047:1,2016-03-03T08:00:00Z,27.8966,-93.5973,4.0,6.936872494,185.0450696,7.75,'11111222,11111222,11111222' 
TABS,ioos:station:wmo:42047:1,2016-03-03T08:30:00Z,27.8966,-93.5973,4.0,7.964420883,186.0543882,8.68,'11111222,11111222,11111222' 
TABS,ioos:station:wmo:42047:1,2016-03-03T09:00:00Z,27.8966,-93.5973,4.0,5.975458141,186.2450889,6.86,'11111222,11111222,11111222' 
TABS,ioos:station:wmo:42047:1,2016-03-03T09:30:00Z,27.8966,-93.5973,4.0,6.410686391,187.8901414,7.1,'11111222,11111222,11111222' 
TABS,ioos:station:wmo:42047:1,2016-03-03T10:00:00Z,27.8966,-93.5973,4.0,6.799301435,186.1635782,7.64,'11111222,11111222,11111222' 
TABS,ioos:station:wmo:42047:1,2016-03-03T10:30:00Z,27.8966,-93.5973,4.0,6.860860004,185.436571,8.24,'11111222,11111222,11111222' 
TABS,ioos:station:wmo:42047:1,2016-03-03T11:00:00Z,27.8966,-93.5973,4.0,8.054067295,185.2719145,9.44,'11111222,11111222,11111222' 
TABS,ioos:station:wmo:42047:1,2016-03-03T11:30:00Z,27.8966,-93.5973,4.0,7.982881685,187.1964291,9.15,'11111222,11111222,11111222' 
TABS,ioos:station:wmo:42047:1,2016-03-03T12:00:00Z,27.8966,-93.5973,4.0,7.13505431,190.7431632,8.17,'11111222,11111222,11111222' 
TABS,ioos:station:wmo:42047:1,2016-03-03T12:30:00Z,27.8966,-93.5973,4.0,7.861838207,193.0111842,8.96,'11111222,11111222,11111222' 
TABS,ioos:station:wmo:42047:1,2016-03-03T13:00:00Z,27.8966,-93.5973,4.0,7.81338595,190.9937281,9.09,'11111222,11111222,11111222' 
TABS,ioos:station:wmo:42047:1,2016-03-03T13:30:00Z,27.8966,-93.5973,4.0,9.348031878,186.3877671,10.9,'11111222,11111222,11111222' 
TABS,ioos:station:wmo:42047:1,2016-03-03T14:00:00Z,27.8966,-93.5973,4.0,9.235588774,185.0317442,10.55,'11111222,11111222,11111222' 
TABS,ioos:station:wmo:42047:1,2016-03-03T14:30:00Z,27.8966,-93.5973,4.0,7.508082312,192.8518011,8.8,'11111222,11111222,11111222' 
TABS,ioos:station:wmo:42047:1,2016-03-03T15:00:00Z,27.8966,-93.5973,4.0,6.255189845,197.971663,7.53,'11111222,11111222,11111222' 
TABS,ioos:station:wmo:42047:1,2016-03-03T15:30:00Z,27.8966,-93.5973,4.0,6.017216965,200.9351268,6.89,'11111222,11111222,11111222' 
TABS,ioos:station:wmo:42047:1,2016-03-03T16:00:00Z,27.8966,-93.5973,4.0,5.860998208,199.6408368,6.84,'11111222,11111222,11111222' 
TABS,ioos:station:wmo:42047:1,2016-03-03T16:30:00Z,27.8966,-93.5973,4.0,5.07326325,210.3053529,6.48,'11111222,11111222,11111222' 
TABS,ioos:station:wmo:42047:1,2016-03-03T17:00:00Z,27.8966,-93.5973,4.0,3.889730068,223.958481,4.59,'11111222,11111222,11111222' 
TABS,ioos:station:wmo:42047:1,2016-03-03T17:30:00Z,27.8966,-93.5973,4.0,4.504941731,224.0107968,5.33,'11111222,11111222,11111222' 
TABS,ioos:station:wmo:42047:1,2016-03-03T18:00:00Z,27.8966,-93.5973,4.0,3.648026864,217.0899054,4.33,'11111222,11111222,11111222' 
TABS,ioos:station:wmo:42047:1,2016-03-03T18:30:00Z,27.8966,-93.5973,4.0,2.928378391,219.1793946,3.69,'11111222,11111222,11111222' 
TABS,ioos:station:wmo:42047:1,2016-03-03T19:00:00Z,27.8966,-93.5973,4.0,2.781078927,220.3332578,3.37,'11111222,11111222,11111222' 
TABS,ioos:station:wmo:42047:1,2016-03-03T19:30:00Z,27.8966,-93.5973,4.0,2.490401574,229.723206,2.98,'11111222,11111222,11111222' 
TABS,ioos:station:wmo:42047:1,2016-03-03T20:00:00Z,27.8966,-93.5973,4.0,2.839894364,207.016337,3.67,'11111222,11111222,11111222' 
TABS,ioos:station:wmo:42047:1,2016-03-03T20:30:00Z,27.8966,-93.5973,4.0,3.068827138,207.9847719,3.48,'11111222,11111222,11111222' 
TABS,ioos:station:wmo:42047:1,2016-03-03T21:00:00Z,27.8966,-93.5973,4.0,2.834678112,218.1232906,3.89,'11111222,11111222,11111222' 
TABS,ioos:station:wmo:42047:1,2016-03-03T21:30:00Z,27.8966,-93.5973,4.0,2.552802382,215.4334416,3.19,'11111222,11111222,11111222' 
TABS,ioos:station:wmo:42047:1,2016-03-03T22:00:00Z,27.8966,-93.5973,4.0,1.980353504,223.7725293,2.57,'11111222,11111222,11111222' 
TABS,ioos:station:wmo:42047:1,2016-03-03T22:30:00Z,27.8966,-93.5973,4.0,1.130309692,256.7014608,1.36,'11111222,11111222,11111222' 
TABS,ioos:station:wmo:42047:1,2016-03-03T23:00:00Z,27.8966,-93.5973,4.0,1.273499117,285.0183255,1.57,'11111222,11111222,11111222' 
TABS,ioos:station:wmo:42047:1,2016-03-03T23:30:00Z,27.8966,-93.5973,4.0,1.290658747,259.7348835,1.76,'11111222,11111222,11111222' 
TABS,ioos:station:wmo:42047:1,2016-03-04T00:00:00Z,27.8966,-93.5973,4.0,2.112841688,254.9114045,2.76,'11111222,11111222,11111222' 
TABS,ioos:station:wmo:42047:1,2016-03-04T00:30:00Z,27.8966,-93.5973,4.0,2.186618394,234.4928655,3.69,'11111222,11111222,11111222' 
TABS,ioos:station:wmo:42047:1,2016-03-04T01:00:00Z,27.8966,-93.5973,4.0,4.839597091,207.5712119,5.64,'11111222,11111222,11111222' 
TABS,ioos:station:wmo:42047:1,2016-03-04T01:30:00Z,27.8966,-93.5973,4.0,4.290093239,218.6599283,4.88,'11111222,11111222,11111222' 
TABS,ioos:station:wmo:42047:1,2016-03-04T02:00:00Z,27.8966,-93.5973,4.0,4.179102775,215.5537427,4.73,'11111222,11111222,11111222' 
TABS,ioos:station:wmo:42047:1,2016-03-04T02:30:00Z,27.8966,-93.5973,4.0,3.142308069,233.932494,3.68,'11111222,11111222,11111222' 
TABS,ioos:station:wmo:42047:1,2016-03-04T03:00:00Z,27.8966,-93.5973,4.0,2.966243416,232.3961645,3.13,'11111222,11111222,11111222' 
TABS,ioos:station:wmo:42047:1,2016-03-04T03:30:00Z,27.8966,-93.5973,4.0,3.536325777,232.3524674,3.94,'11111222,11111222,11111222' 
TABS,ioos:station:wmo:42047:1,2016-03-04T04:00:00Z,27.8966,-93.5973,4.0,2.95372646,245.6042635,3.38,'11111222,11111222,11111222' 
TABS,ioos:station:wmo:42047:1,2016-03-04T04:30:00Z,27.8966,-93.5973,4.0,3.489312253,247.7717526,3.84,'11111222,11111222,11111222' 
TABS,ioos:station:wmo:42047:1,2016-03-04T05:00:00Z,27.8966,-93.5973,4.0,3.601360854,249.3508998,3.97,'11111222,11111222,11111222' 
TABS,ioos:station:wmo:42047:1,2016-03-04T05:30:00Z,27.8966,-93.5973,4.0,3.954099139,267.3908642,4.15,'11111222,11111222,11111222' 
TABS,ioos:station:wmo:42047:1,2016-03-04T06:00:00Z,27.8966,-93.5973,4.0,4.712303046,277.6830075,6.16,'11111222,11111222,11111222' 
TABS,ioos:station:wmo:42047:1,2016-03-04T06:30:00Z,27.8966,-93.5973,4.0,5.621503358,286.8554035,7.33,'11111222,11111222,11111222' 
TABS,ioos:station:wmo:42047:1,2016-03-04T07:00:00Z,27.8966,-93.5973,4.0,8.099339479,313.4490378,9.08,'11111222,11111222,11111222' 
TABS,ioos:station:wmo:42047:1,2016-03-04T07:30:00Z,27.8966,-93.5973,4.0,7.644220039,334.5075017,9.0,'11111222,11111222,11111222' 
TABS,ioos:station:wmo:42047:1,2016-03-04T08:00:00Z,27.8966,-93.5973,4.0,8.052012171,1.280720958,10.0,'11111222,11111222,11111222' 
TABS,ioos:station:wmo:42047:1,2016-03-04T08:30:00Z,27.8966,-93.5973,4.0,8.145458858,19.88068603,9.8,'11111222,11111222,11111222' 
TABS,ioos:station:wmo:42047:1,2016-03-04T09:00:00Z,27.8966,-93.5973,4.0,9.060557378,26.47993812,10.25,'11111222,11111222,11111222' 
TABS,ioos:station:wmo:42047:1,2016-03-04T09:30:00Z,27.8966,-93.5973,4.0,9.959728912,33.4504495,12.06,'11111222,11111222,11111222' 
TABS,ioos:station:wmo:42047:1,2016-03-04T10:00:00Z,27.8966,-93.5973,4.0,10.74443577,30.78971247,12.35,'11111222,11111222,11111222' 
TABS,ioos:station:wmo:42047:1,2016-03-04T10:30:00Z,27.8966,-93.5973,4.0,9.37257702,36.23382391,11.36,'11111222,11111222,11111222' 
TABS,ioos:station:wmo:42047:1,2016-03-04T11:00:00Z,27.8966,-93.5973,4.0,9.025752046,39.24444002,10.55,'11111222,11111222,11111222' 
TABS,ioos:station:wmo:42047:1,2016-03-04T11:30:00Z,27.8966,-93.5973,4.0,8.379289946,44.75793197,9.91,'11111222,11111222,11111222' 
TABS,ioos:station:wmo:42047:1,2016-03-04T12:00:00Z,27.8966,-93.5973,4.0,8.468299711,57.09775454,9.62,'11111222,11111222,11111222' 
TABS,ioos:station:wmo:42047:1,2016-03-04T12:30:00Z,27.8966,-93.5973,4.0,8.308940967,69.05618243,9.8,'11111222,11111222,11111222' 
TABS,ioos:station:wmo:42047:1,2016-03-04T13:00:00Z,27.8966,-93.5973,4.0,7.616153885,63.73738275,9.1,'11111222,11111222,11111222' 
TABS,ioos:station:wmo:42047:1,2016-03-04T13:30:00Z,27.8966,-93.5973,4.0,8.25702731,71.05997564,9.42,'11111222,11111222,11111222' 
TABS,ioos:station:wmo:42047:1,2016-03-04T14:00:00Z,27.8966,-93.5973,4.0,8.492732187,69.0250848,9.83,'11111222,11111222,11111222' 
TABS,ioos:station:wmo:42047:1,2016-03-04T14:30:00Z,27.8966,-93.5973,4.0,7.795184411,63.89478612,9.12,'11111222,11111222,11111222' 
TABS,ioos:station:wmo:42047:1,2016-03-04T15:00:00Z,27.8966,-93.5973,4.0,7.372706423,64.96396481,8.74,'11111222,11111222,11111222' 
TABS,ioos:station:wmo:42047:1,2016-03-04T15:30:00Z,27.8966,-93.5973,4.0,7.038082125,65.21881066,8.38,'11111222,11111222,11111222' 
TABS,ioos:station:wmo:42047:1,2016-03-04T16:00:00Z,27.8966,-93.5973,4.0,7.621679605,74.94229381,9.29,'11111222,11111222,11111222' 
TABS,ioos:station:wmo:42047:1,2016-03-04T16:30:00Z,27.8966,-93.5973,4.0,7.028911722,79.0093999,8.75,'11111222,11111222,11111222' 
TABS,ioos:station:wmo:42047:1,2016-03-04T17:00:00Z,27.8966,-93.5973,4.0,7.29115903,91.02204568,9.25,'11111222,11111222,11111222' 
TABS,ioos:station:wmo:42047:1,2016-03-04T17:30:00Z,27.8966,-93.5973,4.0,7.314649684,85.29449311,8.65,'11111222,11111222,11111222' 
TABS,ioos:station:wmo:42047:1,2016-03-04T18:00:00Z,27.8966,-93.5973,4.0,7.232461545,75.75201725,8.61,'11111222,11111222,11111222' 
TABS,ioos:station:wmo:42047:1,2016-03-04T18:30:00Z,27.8966,-93.5973,4.0,6.813648068,83.51082384,8.25,'11111222,11111222,11111222' 